Helicity
427 541 775 738 654 583 697 873 453 258 147 460 337 363 287 179 177 187 203 185 159 89 106 104 94 59 52 30 22 4 25 32 35 59 56 75 84 51 -9 11 -9 -4 1 35
196 86 197 451 544 720 763 649 704 312 318 426 314 316 263 190 135 166 182 172 128 109 111 118 78 51 50 26 21 17 23 41 53 51 93 57 54 34 27 -11 -4 20 2 -23
159 215 148 193 405 590 520 583 517 588 313 380 253 364 273 298 198 217 191 123 102 131 112 110 62 52 24 4 -10 10 7 27 39 41 108 74 44 42 47 28 6 7 30 21
148 145 175 234 505 599 649 689 651 587 404 398 242 172 133 202 265 136 92 89 77 91 117 94 64 35 22 5 10 17 17 30 41 11 -12 47 34 25 58 80 127 80 42 29
153 204 96 172 223 182 445 522 451 439 212 160 183 130 76 114 146 121 55 54 78 69 58 61 36 27 14 18 12 28 26 26 3 -12 39 83 63 45 21 61 120 95 45 39
35 19 -6 36 76 145 212 114 95 71 102 75 105 112 84 86 101 125 55 63 81 77 67 74 69 39 27 33 40 42 24 10 -6 23 -3 78 52 34 54 10 31 26 52 30
63 49 -10 101 134 86 88 106 150 115 101 43 81 76 29 75 71 76 95 66 69 75 82 74 57 16 6 24 21 14 27 -4 -15 3 11 21 30 -2 47 62 38 34 9 8
33 56 43 -48 90 89 45 115 151 85 64 56 46 44 82 110 67 84 85 108 110 78 78 101 64 57 59 70 62 29 14 1 10 18 36 58 10 35 12 26 62 43 30 27
34 59 56 15 41 72 90 58 106 128 146 69 55 81 79 100 105 105 111 109 102 102 111 99 52 65 76 73 66 53 46 7 12 30 39 57 93 53 20 9 61 67 34 31
23 60 89 97 80 82 67 61 115 126 115 153 76 84 85 106 98 88 89 90 99 110 97 69 76 101 99 86 72 66 47 40 29 44 49 71 67 45 21 16 74 34 26 23
42 68 78 87 81 73 72 81 115 96 121 181 122 122 88 84 68 61 74 100 102 100 84 72 105 99 136 99 93 67 54 50 47 55 60 76 60 34 38 64 51 39 32 35
56 68 99 84 67 75 94 97 137 167 137 136 149 124 115 102 75 59 96 93 108 103 96 104 110 107 94 81 63 72 72 76 74 65 90 63 74 80 61 41 42 41 35 25
61 82 68 71 78 82 86 111 180 148 204 165 116 130 123 108 103 72 73 69 74 69 99 95 99 92 71 72 69 75 73 76 66 50 75 75 73 69 49 40 38 34 28 21
105 80 77 66 70 83 87 133 177 138 132 138 131 121 112 102 74 55 56 65 70 72 77 83 75 72 64 64 71 62 80 63 73 98 100 81 67 64 46 42 36 40 41 36
68 64 59 70 69 82 109 126 185 154 100 123 111 98 133 91 70 74 66 55 53 49 67 75 74 64 48 58 56 68 66 97 80 90 100 101 96 57 35 35 40 40 32 35
104 98 76 104 133 156 138 158 139 158 156 184 123 92 81 63 58 65 65 63 73 61 65 66 55 54 44 42 55 70 91 100 111 108 104 106 89 56 48 80 60 63 69 66
67 86 98 90 72 71 128 131 157 202 157 99 110 88 79 75 68 66 51 57 57 63 50 51 45 34 25 40 48 87 103 105 97 81 96 73 46 62 89 91 90 84 79 68
70 75 85 105 85 76 128 189 174 137 107 128 106 71 77 74 56 51 62 47 45 54 51 35 25 23 19 28 52 68 76 59 56 47 40 82 107 97 87 80 68 67 66 61
72 98 118 148 167 158 133 153 165 102 102 119 96 55 71 79 87 62 45 53 54 45 35 24 8 22 18 12 57 58 63 33 70 72 81 87 87 92 89 82 73 76 74 67
152 165 189 192 179 158 174 167 154 149 111 113 96 110 88 72 81 70 46 48 44 35 20 13 10 13 18 27 46 48 59 71 86 91 69 86 97 94 88 83 72 70 69 64
291 259 221 203 148 211 174 125 116 103 85 104 117 95 67 98 62 61 52 38 37 31 24 14 20 15 23 58 95 78 69 75 63 50 60 70 88 95 92 79 71 64 65 67
58 106 178 220 202 149 115 119 107 93 92 101 117 104 103 121 101 71 48 45 23 30 28 16 22 19 40 72 105 99 92 86 79 72 93 99 96 82 75 69 68 67 68 62
132 140 105 103 94 102 109 120 132 104 92 90 137 148 131 110 90 73 53 26 24 28 21 23 19 41 57 74 93 97 89 91 103 119 121 110 98 76 72 81 69 70 66 47
75 36 37 77 72 72 69 107 101 93 87 102 132 146 116 126 101 57 39 48 31 26 21 30 21 47 67 71 68 87 83 93 107 108 93 84 84 89 79 79 74 74 63 44
57 49 36 25 33 62 76 104 102 82 76 100 155 134 112 118 74 56 45 30 30 21 27 18 25 62 78 80 75 79 89 101 99 83 74 81 94 100 101 79 70 66 66 56
66 50 38 38 36 51 54 64 76 75 85 123 136 109 86 75 56 36 34 34 28 33 14 8 32 57 62 69 75 76 96 104 90 67 69 90 93 96 105 96 77 65 64 64
77 64 68 60 70 63 59 71 70 75 65 95 99 85 89 62 37 33 35 24 41 27 29 26 39 62 69 83 96 110 129 109 87 83 84 96 103 110 119 107 84 77 74 70
Wind_Speed
19 25 53 67 57 51 33 42 33 41 40 46 54 58 43 27 22 27 31 24 26 27 17 19 22 17 22 16 24 26 28 31 40 33 22 28 34 46 48 48 46 54 54 45
9 19 38 45 52 30 35 32 28 39 47 52 44 43 36 30 26 28 28 34 30 18 14 21 15 13 14 17 26 23 28 32 42 35 25 16 34 52 51 49 51 47 45 42
10 21 31 40 27 25 26 37 48 41 50 47 42 35 31 35 26 30 28 21 17 16 16 19 10 9 18 18 21 23 29 30 32 39 37 35 33 50 49 45 46 40 39 43
14 20 29 46 35 31 29 37 43 37 44 45 30 32 26 26 31 25 15 21 32 18 17 13 9 14 14 17 20 26 30 33 31 30 27 26 32 42 44 39 40 38 36 43
4 22 24 33 40 30 30 29 31 31 27 26 30 31 29 23 22 21 25 20 13 16 13 18 10 7 11 18 19 27 31 33 33 32 34 19 31 35 39 35 38 37 41 43
6 21 42 31 33 28 27 24 25 18 30 28 29 28 22 21 16 22 23 11 13 15 14 19 14 19 15 18 22 27 29 32 33 33 35 23 29 40 31 33 37 37 41 49
11 20 34 38 42 30 24 26 28 20 27 22 26 20 17 19 25 19 10 14 20 21 19 18 21 20 17 17 19 22 29 28 30 32 27 23 28 32 29 31 36 40 42 50
16 24 30 34 38 28 23 28 31 27 20 18 16 17 16 16 13 8 10 23 23 26 21 12 10 13 15 19 23 20 18 26 29 30 32 23 23 39 37 35 35 43 47 50
19 30 31 33 32 26 26 25 29 25 15 22 17 16 17 15 16 18 25 25 29 31 27 20 15 14 14 16 20 25 20 21 22 26 27 25 27 45 40 29 33 43 49 51
24 30 31 33 34 32 31 25 26 22 18 23 19 23 17 19 20 21 29 28 30 34 21 15 15 18 16 15 15 19 20 21 21 25 26 27 33 43 32 38 40 46 49 51
28 34 28 23 32 41 34 25 25 25 17 17 17 20 18 17 20 20 25 24 32 26 21 20 20 19 16 17 19 20 19 23 24 25 25 25 40 30 33 34 37 43 46 48
28 35 27 29 27 32 33 25 23 15 11 12 11 7 15 19 21 19 25 29 26 28 25 25 22 20 16 14 19 21 22 26 27 30 30 29 36 32 31 32 34 39 43 46
31 36 27 30 29 31 26 24 25 13 10 5 12 16 16 16 18 24 24 26 26 26 26 20 22 20 19 16 20 20 24 25 26 23 25 26 28 30 30 33 34 38 41 44
30 33 35 29 27 25 25 23 29 24 16 14 17 22 19 23 20 17 17 9 15 15 20 22 21 21 24 20 24 23 27 19 24 29 24 24 25 27 29 31 33 35 39 42
34 38 32 22 16 10 9 12 18 22 24 21 15 13 19 17 12 10 11 12 15 18 22 23 23 22 22 24 24 24 22 23 23 29 20 27 21 24 29 30 34 36 38 41
33 31 29 27 29 30 31 29 23 19 14 13 19 23 22 17 14 14 16 19 21 23 23 22 24 24 25 23 25 26 25 25 25 23 24 24 22 26 30 28 33 35 38 41
24 29 28 27 23 23 30 33 31 24 22 21 18 24 23 18 22 22 22 23 24 25 22 24 23 22 25 27 27 19 22 23 24 22 23 23 22 27 27 29 31 34 37 39
26 21 15 13 13 17 24 17 19 22 22 23 25 26 24 29 25 24 27 25 24 25 24 23 22 23 25 26 24 20 20 22 24 23 25 26 25 26 28 29 30 33 36 38
25 25 27 27 28 32 31 24 23 20 25 27 30 25 29 28 26 25 26 28 24 25 23 22 23 23 23 23 18 18 19 21 23 26 27 27 27 28 29 29 30 32 35 36
27 28 27 28 33 28 29 28 31 33 32 30 31 31 27 27 26 26 22 25 22 21 21 22 23 23 22 22 18 18 19 22 24 24 23 24 25 26 27 29 31 32 34 36
32 30 28 29 29 30 28 28 31 32 32 32 30 29 22 29 23 21 26 21 20 21 20 21 23 25 19 18 20 22 22 22 21 22 23 23 23 25 27 30 32 33 34 36
26 16 19 25 26 27 32 34 32 33 33 29 30 23 24 25 24 23 22 21 20 22 19 23 25 22 19 19 19 19 19 20 21 23 24 25 26 27 29 31 33 35 36 37
17 15 21 26 29 34 38 40 39 35 32 30 26 24 24 22 23 20 20 19 20 20 22 25 23 20 19 18 19 19 19 20 21 23 25 26 28 30 32 33 34 35 36 36
20 22 23 29 31 31 31 30 30 29 27 24 23 24 25 22 20 19 19 21 19 22 25 24 21 16 17 19 17 18 19 19 19 21 23 26 29 31 32 33 33 34 34 35
23 24 26 26 25 22 21 23 22 23 21 20 22 22 24 21 21 22 19 19 23 22 24 24 22 19 19 19 18 17 18 17 17 20 25 28 29 30 31 31 31 32 32 33
25 25 22 21 21 22 23 22 21 22 22 24 24 23 23 24 20 20 21 22 23 23 21 23 21 19 18 17 17 15 13 14 16 23 27 28 28 29 29 29 28 29 30 30
27 26 20 18 19 23 23 24 24 25 23 25 26 25 25 20 25 26 23 23 24 23 21 22 19 14 13 16 15 11 13 14 19 23 25 26 26 26 25 24 26 27 27 28
Wind_Direction
81 145 148 140 148 148 176 218 220 207 214 219 230 238 248 251 228 259 272 278 281 266 276 290 294 297 315 326 336 340 357 354 349 357 13 21 12 353 320 300 282 273 271 326
116 155 179 139 143 192 214 226 217 217 229 230 222 241 239 247 240 256 266 269 276 276 272 291 293 300 328 334 340 358 7 2 353 1 18 8 353 338 320 298 290 283 291 297
111 200 174 164 182 217 216 219 222 225 236 245 227 224 228 242 255 266 269 265 266 256 264 293 276 304 308 344 358 20 17 15 3 347 349 349 343 324 327 304 281 301 310 320
99 126 150 200 216 236 232 236 231 223 224 233 225 231 222 229 254 271 267 265 254 250 265 272 289 293 331 3 32 24 17 7 10 2 356 2 344 325 325 320 308 301 319 321
155 205 186 222 222 235 247 240 221 237 196 216 220 232 226 217 245 248 247 248 234 254 253 280 255 315 345 1 39 23 21 17 14 16 26 24 345 334 341 326 325 330 317 324
176 207 214 216 220 241 250 251 225 242 211 205 216 229 208 225 221 269 251 205 233 248 259 267 286 302 348 25 30 26 26 22 24 15 18 54 339 326 326 345 345 335 324 325
228 227 219 219 219 237 256 229 226 235 215 205 228 214 211 211 237 241 232 239 249 252 254 278 291 307 340 5 23 33 26 32 24 18 36 14 353 338 347 352 349 342 342 336
232 225 223 220 227 243 246 228 232 236 214 209 216 177 187 216 227 224 231 252 251 242 255 285 329 348 20 15 10 28 53 31 21 18 16 23 344 320 320 321 332 335 328 328
227 220 220 221 221 230 226 235 238 236 184 230 174 188 203 202 232 242 247 249 244 245 254 277 302 330 359 15 18 7 35 31 27 19 11 12 345 319 322 331 321 323 323 326
227 223 224 223 219 223 229 240 241 234 225 224 218 228 217 244 248 250 242 245 247 247 269 289 315 328 354 19 22 15 17 20 17 11 9 9 345 333 342 314 315 318 323 326
221 218 219 219 221 220 229 237 240 231 238 230 244 241 241 249 251 247 246 247 251 258 274 292 313 332 346 5 3 5 8 4 9 7 3 0 341 352 339 340 337 329 331 331
219 217 221 223 227 226 230 230 231 233 222 219 243 275 275 270 267 255 248 260 253 264 279 295 312 339 349 6 359 357 355 352 359 353 355 6 359 5 2 353 350 347 341 336
215 212 225 225 228 228 231 222 222 213 197 206 251 263 281 287 285 266 258 264 264 274 283 301 318 334 342 359 349 0 353 352 353 1 4 5 6 7 6 358 353 348 346 344
215 217 215 224 224 224 223 222 227 227 231 242 257 262 271 274 286 300 292 297 291 298 299 309 324 333 330 347 348 350 349 7 355 352 4 7 4 6 3 0 356 353 349 347
214 211 214 218 210 201 203 225 239 241 250 239 241 266 281 285 312 340 332 317 307 299 302 315 321 335 351 347 349 349 354 349 349 347 13 0 10 9 359 356 351 347 344 343
208 206 207 209 213 222 221 222 242 254 249 239 252 263 269 276 294 308 308 306 300 300 310 320 327 336 340 353 351 356 0 1 357 2 11 13 21 3 357 0 354 354 351 346
196 201 208 215 226 232 229 230 229 247 252 257 254 254 265 270 274 281 289 296 297 304 317 321 334 348 347 350 352 18 18 18 23 33 32 19 19 5 14 9 3 0 358 355
195 192 188 202 213 226 230 254 252 248 252 261 258 262 256 256 265 274 275 287 299 308 318 330 346 355 351 359 15 40 43 40 36 40 22 26 36 30 22 23 19 8 1 0
187 194 206 218 227 227 227 247 254 267 266 264 260 252 255 253 263 273 279 285 303 309 325 342 348 359 7 15 52 64 67 49 58 51 44 44 43 41 37 35 31 26 21 18
192 210 224 228 224 225 240 252 258 264 269 268 258 254 258 251 257 269 287 290 308 325 337 350 352 2 11 26 53 66 75 68 72 57 47 52 48 46 40 32 28 30 31 31
216 226 232 212 230 242 256 260 259 261 263 263 256 255 252 255 258 274 283 306 320 329 351 356 5 3 30 56 57 70 73 81 70 59 58 66 60 56 53 51 52 54 55 50
223 213 219 238 250 259 255 250 256 261 257 259 243 249 255 254 265 283 291 310 330 339 1 0 359 14 46 77 72 70 65 70 63 56 54 55 62 69 71 73 70 64 59 55
202 228 241 246 258 250 249 244 248 253 252 250 239 240 253 259 277 292 302 318 331 351 354 353 7 35 63 79 84 71 64 62 57 52 50 58 65 72 80 74 67 62 58 55
242 248 243 252 252 255 259 254 252 257 255 234 232 240 259 265 280 299 310 320 343 342 345 352 14 60 79 90 88 84 82 72 63 58 66 79 83 79 77 75 73 68 64 62
255 262 256 262 263 262 265 260 257 263 248 223 235 253 264 268 286 295 318 329 328 339 351 9 26 64 88 96 96 88 88 73 64 76 93 94 90 87 81 80 78 70 66 63
271 274 269 262 262 262 263 260 260 263 240 236 254 262 269 273 291 300 307 320 329 347 6 13 37 64 85 94 97 85 64 66 77 98 104 101 99 96 89 78 75 77 74 69
272 272 277 279 280 271 272 264 259 254 240 241 260 263 271 286 287 295 305 314 336 347 2 12 26 59 83 98 92 68 61 77 100 105 107 104 100 92 86 78 81 78 72 67